Simultaneous Nadir Overpasses (SNOs) Predictions

Prediction of SNOs between GOES-16 and NOAA-20 Satellite Orbit:

Table of predicted SNOs for the next 14.0 days since TLE Epoch: 3/5/2022
Index Date Time (GOES-16) GOES-16 Lat,Lon NOAA-20 Lat,Lon Distance(km) Time Diff (sec)
1 03/06/2022 06:44:51 -0.07, -75.20 0.89, -79.46 486.36 80
2 03/07/2022 06:23:27 -0.07, -75.20 -0.13, -74.94 29.71 80
3 03/09/2022 18:26:41 0.06, -75.21 -0.08, -75.71 57.94 80
4 03/10/2022 18:10:38 0.06, -75.21 0.94, -71.18 458.70 80
5 03/12/2022 06:32:27 -0.05, -75.21 0.24, -76.45 141.76 80
6 03/13/2022 06:11:04 -0.05, -75.22 -0.78, -71.93 374.94 80
7 03/14/2022 18:33:01 0.04, -75.23 -0.43, -77.23 228.11 80
8 03/15/2022 18:16:57 0.04, -75.24 0.59, -72.70 289.15 80
9 03/17/2022 06:38:47 -0.03, -75.26 0.59, -77.97 309.96 80
10 03/18/2022 06:17:23 -0.03, -75.27 -0.43, -73.45 207.43 80
